DW7621 Ede NL current weather conditions

sailwx.info

Wind from 325 at 0 knots gusting 4

Air temperature 20.6° C
Dewpoint 15.3° C

Last reported at 2018-Jul-19 20:44 UTC.
Time now 2018-Jul-19 21:14 UTC

Location: N 52°03' E 005°39'.
View on Google Maps.

See reports from other nearby stations

  
Tides and Currents Weather Stations Pressure Air Temp Water Temp Dewpoint Dewpoint Depression Visibility Wind Speed Wind Dir Waves Ship Positions
date/time (UTC)wind fromknots sea level pressurealtimeterstation pressurevisibilityair tempwater tempwave heightnotes
2018-Jul-19 20:44 325 0 gusting 4 20.6
2018-Jul-19 20:29 353 1 gusting 4 21.1
2018-Jul-19 20:14 360 21.7
2018-Jul-19 19:59 002 0 gusting 4 21.7
2018-Jul-19 19:44 348 2 gusting 5 22.2
2018-Jul-19 19:29 350 3 gusting 7 22.8
2018-Jul-19 19:14 360 1 gusting 6 23.3
2018-Jul-19 18:59 349 3 gusting 7 23.9
2018-Jul-19 18:44 344 3 gusting 10 23.9
2018-Jul-19 18:29 008 3 gusting 8 24.4
2018-Jul-19 18:14 353 1 gusting 8 25.6
2018-Jul-19 17:59 003 5 gusting 10 26.1
2018-Jul-19 17:44 334 3 gusting 9 26.1
2018-Jul-19 17:29 350 5 gusting 12 25.6
2018-Jul-19 17:14 008 5 gusting 11 26.1
2018-Jul-19 16:59 346 3 gusting 11 26.1
2018-Jul-19 16:43 287 4 gusting 7 26.1
2018-Jul-19 16:28 358 3 gusting 10 27.2
2018-Jul-19 16:13 346 5 gusting 10 27.8
2018-Jul-19 15:58 315 2 gusting 7 27.8
2018-Jul-19 15:43 023 4 gusting 10 27.8
2018-Jul-19 15:28 324 2 gusting 7 28.3
2018-Jul-19 15:13 351 5 gusting 9 28.9
2018-Jul-19 14:58 282 2 gusting 9 28.3
2018-Jul-19 14:43 347 3 gusting 8 28.3
2018-Jul-19 14:28 358 3 gusting 7 27.8
2018-Jul-19 14:13 325 3 gusting 9 26.7
2018-Jul-19 13:58 278 3 gusting 6 26.1
2018-Jul-19 13:43 307 0 gusting 8 26.7
2018-Jul-19 13:28 332 1 gusting 7 27.2
2018-Jul-19 13:13 293 3 gusting 7 27.2
2018-Jul-19 12:58 328 4 gusting 7 27.2
2018-Jul-19 12:43 311 0 gusting 6 26.7
2018-Jul-19 12:28 292 0 gusting 6 28.3
2018-Jul-19 12:13 354 3 gusting 7 28.3
2018-Jul-19 11:58 315 28.3
2018-Jul-19 11:43 304 3 gusting 7 28.3
2018-Jul-19 11:28 004 3 gusting 10 27.8
2018-Jul-19 11:13 273 2 gusting 6 26.7
2018-Jul-19 10:58 005 4 gusting 6 26.7
2018-Jul-19 10:43 334 0 gusting 6 26.1
2018-Jul-19 10:28 026 0 gusting 5 26.1
2018-Jul-19 10:13 297 3 gusting 6 26.1
2018-Jul-19 09:58 106 1 gusting 6 26.1
2018-Jul-19 09:43 354 3 gusting 6 25.0
2018-Jul-19 09:28 355 0 gusting 4 25.0
2018-Jul-19 09:13 341 1 gusting 6 25.0
2018-Jul-19 08:58 010 3 gusting 6 24.4
2018-Jul-19 08:43 336 1 gusting 6 23.9
2018-Jul-19 08:27 322 23.3
2018-Jul-19 08:12 326 1 gusting 4 22.8
2018-Jul-19 07:57 343 0 gusting 4 23.3
2018-Jul-19 07:42 344 22.2
2018-Jul-19 07:27 345 21.7
2018-Jul-19 07:12 345 21.7
2018-Jul-19 06:57 345 21.1
2018-Jul-19 06:42 345 20.6
2018-Jul-19 06:27 345 20.0
2018-Jul-19 06:12 345 20.0
2018-Jul-19 05:57 345 18.9
2018-Jul-19 05:42 345 18.3
2018-Jul-19 05:27 345 17.8
2018-Jul-19 05:12 345 17.8
2018-Jul-19 04:57 345 17.2
2018-Jul-19 04:42 345 17.2
2018-Jul-19 04:27 345 17.2
2018-Jul-19 04:12 345 17.2
2018-Jul-19 03:57 345 17.8
2018-Jul-19 03:42 345 17.8
2018-Jul-19 03:27 345 17.8
2018-Jul-19 03:12 345 17.8
2018-Jul-19 02:57 332 17.8
2018-Jul-19 02:42 332 18.3
2018-Jul-19 02:27 332 18.3
2018-Jul-19 02:12 332 18.3
2018-Jul-19 01:57 325 18.3
2018-Jul-19 01:42 325 18.3
2018-Jul-19 01:27 325 18.3
2018-Jul-19 01:12 325 18.9
2018-Jul-19 00:57 325 18.9
2018-Jul-19 00:42 325 18.9
2018-Jul-19 00:27 325 19.4
2018-Jul-19 00:12 325 19.4
2018-Jul-18 23:57 325 19.4
2018-Jul-18 23:42 325 19.4
2018-Jul-18 23:26 325 0 gusting 2 19.4
2018-Jul-18 23:11 325 19.4
2018-Jul-18 22:56 324 20.0
2018-Jul-18 22:41 323 0 gusting 5 20.0
2018-Jul-18 22:26 325 0 gusting 4 20.0
2018-Jul-18 22:11 324 20.6
2018-Jul-18 21:56 318 1 gusting 3 20.6
2018-Jul-18 21:41 007 20.6
2018-Jul-18 21:26 010 0 gusting 4 20.6
2018-Jul-18 21:11 008 0 gusting 3 20.6
2018-Jul-18 20:56 010 0 gusting 4 20.6
2018-Jul-18 20:41 004 2 gusting 6 21.1
2018-Jul-18 20:26 002 1 gusting 6 21.1
2018-Jul-18 20:11 005 2 gusting 6 21.7
2018-Jul-18 19:56 356 2 gusting 6 22.2
2018-Jul-18 19:41 003 3 gusting 8 22.8
2018-Jul-18 19:26 358 5 gusting 10 22.8
2018-Jul-18 19:11 358 4 gusting 8 23.3
2018-Jul-18 18:56 010 6 gusting 11 23.9
2018-Jul-18 18:41 005 6 gusting 11 25.0
2018-Jul-18 18:26 292 3 gusting 11 25.6
2018-Jul-18 18:11 315 3 gusting 8 26.7
2018-Jul-18 17:56 332 0 gusting 6 27.2
2018-Jul-18 17:41 316 1 gusting 7 26.7
2018-Jul-18 17:26 294 2 gusting 6 27.2
2018-Jul-18 17:11 337 1 gusting 6 27.2
2018-Jul-18 16:56 282 0 gusting 5 27.2
2018-Jul-18 16:41 289 1 gusting 6 26.7
2018-Jul-18 16:26 284 2 gusting 6 26.7
2018-Jul-18 16:10 295 1 gusting 6 26.7
2018-Jul-18 15:56 281 1 gusting 6 27.2
2018-Jul-18 15:40 270 27.2
2018-Jul-18 15:25 268 0 gusting 6 28.3
2018-Jul-18 15:10 272 1 gusting 6 28.3
2018-Jul-18 14:55 301 1 gusting 6 27.8
2018-Jul-18 14:40 332 2 gusting 8 27.8
2018-Jul-18 14:25 287 27.2
2018-Jul-18 14:10 297 1 gusting 7 26.1
2018-Jul-18 13:55 294 27.2
2018-Jul-18 13:40 012 26.7
2018-Jul-18 13:25 012 0 gusting 5 26.7
2018-Jul-18 13:10 356 3 gusting 8 26.7
2018-Jul-18 12:55 307 2 gusting 8 27.8
2018-Jul-18 12:40 002 0 gusting 4 28.3
2018-Jul-18 12:25 047 3 gusting 6 27.2
2018-Jul-18 12:10 289 1 gusting 6 25.0
2018-Jul-18 11:55 192 0 gusting 3 25.0
2018-Jul-18 11:40 304 1 gusting 6 26.1
2018-Jul-18 11:25 225 0 gusting 4 25.0
2018-Jul-18 11:10 291 1 gusting 5 23.9
2018-Jul-18 10:55 217 0 gusting 4 23.9
2018-Jul-18 10:40 202 23.9
2018-Jul-18 10:25 203 23.3
2018-Jul-18 10:10 280 0 gusting 5 23.9
2018-Jul-18 09:55 194 0 gusting 6 23.3
2018-Jul-18 09:40 215 0 gusting 7 23.3
2018-Jul-18 09:25 208 2 gusting 6 23.3
2018-Jul-18 09:10 188 1 gusting 5 23.3
2018-Jul-18 08:55 294 23.9
2018-Jul-18 08:40 290 1 gusting 6 22.8
2018-Jul-18 08:25 191 0 gusting 4 22.2
2018-Jul-18 08:10 217 0 gusting 3 21.7
2018-Jul-18 07:55 214 21.1
2018-Jul-18 07:40 218 0 gusting 4 20.6
2018-Jul-18 07:25 209 20.0
2018-Jul-18 07:10 254 20.6
2018-Jul-18 06:55 256 0 gusting 3 19.4
2018-Jul-18 06:40 280 18.9
2018-Jul-18 06:24 277 1 gusting 5 18.9
2018-Jul-18 06:09 264 18.3
2018-Jul-18 05:54 261 0 gusting 4 17.8
2018-Jul-18 05:39 328 17.8
2018-Jul-18 05:24 329 17.2
2018-Jul-18 05:09 329 16.1
2018-Jul-18 04:54 329 15.6
2018-Jul-18 04:39 329 15.6
2018-Jul-18 04:24 329 15.0
2018-Jul-18 04:09 329 15.0
2018-Jul-18 03:54 329 14.4
2018-Jul-18 03:39 329 14.4
2018-Jul-18 03:24 329 14.4
2018-Jul-18 03:09 329 14.4
2018-Jul-18 02:54 329 14.4
2018-Jul-18 02:39 330 14.4
2018-Jul-18 02:24 329 15.0
2018-Jul-18 02:09 329 15.0
2018-Jul-18 01:54 329 15.0
2018-Jul-18 01:39 330 15.0
2018-Jul-18 01:24 329 15.0
2018-Jul-18 01:09 329 15.6
2018-Jul-18 00:54 330 15.6
2018-Jul-18 00:39 329 15.6
2018-Jul-18 00:24 329 15.6
2018-Jul-18 00:09 329 16.1
2018-Jul-17 23:53 329 16.1
2018-Jul-17 23:39 329 16.1
2018-Jul-17 23:23 329 16.7
2018-Jul-17 23:08 329 16.7
2018-Jul-17 22:53 329 17.2
2018-Jul-17 22:38 329 17.2
2018-Jul-17 22:23 329 17.2
2018-Jul-17 22:08 329 17.8
2018-Jul-17 21:53 329 18.3
2018-Jul-17 21:38 329 18.3
2018-Jul-17 21:23 329 18.3
2018-Jul-17 21:08 329 18.9